Hourly Data Report for October 16, 2014

All times are specified in Local Standard Time (LST). Add 1 hour to adjust for Daylight Saving Time where and when it is observed.

POND INLET A
NUNAVUT

72°41'22.000" N
77°58'08.000" W
61.60 m
2403206
71095
YIO

Download Data

Hourly Data (October 2014)
Hourly Data Report for October 16, 2014
Temp Definition
°C
Dew Point Temp Definition
°C
Rel Hum Definition
%
Wind Dir Definition
10's deg

Wind Spd Definition
km/h
Visibility Definition
km
Stn Press Definition
kPa
Hmdx Definition


Wind Chill Definition


Weather Definition


TIME
00:00 Legend Double Dagger -0.3 -5.0 71 4 15 16.1 100.52   -5 LegendNANA
01:00 Legend Double Dagger -0.5 -5.3 70 LegendMM 4 16.1 100.53   -2 LegendNANA
02:00 Legend Double Dagger -1.5 -5.5 74 8 8 16.1 100.53   -5 LegendNANA
03:00 Legend Double Dagger 0.0 -4.6 71 8 21 16.1 100.54   -5 LegendNANA
04:00 Legend Double Dagger -0.1 -4.5 72 9 28 16.1 100.54   -6 LegendNANA
05:00 Legend Double Dagger -0.5 -4.6 74 8 18 16.1 100.58   -6 LegendNANA
06:00 Legend Double Dagger -0.5 -5.4 69 8 21 16.1 100.59   -6 LegendNANA
07:00 Legend Double Dagger -0.1 -4.9 70 7 26 16.1 100.60   -6 LegendNANA
08:00 Legend Double Dagger -0.1 -4.7 71 5 24 16.1 100.60   -6 LegendNANA
09:00 Legend Double Dagger -0.6 -5.4 70 4 15 16.1 100.62   -5 LegendNANA
10:00 Legend Double Dagger -3.4 -6.5 79 12 8 16.1 100.65   -7 LegendNANA
11:00 Legend Double Dagger -4.2 -7.0 81 14 15 16.1 100.65   -10 LegendNANA
12:00 Legend Double Dagger -2.2 -6.4 73   0 16.1 100.67     LegendNANA
13:00 Legend Double Dagger -3.8 -6.8 80 15 13 16.1 100.67   -9 LegendNANA
14:00 Legend Double Dagger -3.2 -7.2 74 LegendMM 5 16.1 100.71   -5 LegendNANA
15:00 Legend Double Dagger -2.5 -7.0 71 LegendMM 4 16.1 100.74   -4 LegendNANA
16:00 Legend Double Dagger -7.1 -9.7 82 13 9 16.1 100.78   -11 LegendNANA
17:00 Legend Double Dagger -6.6 -9.7 79 15 9 16.1 100.82   -11 LegendNANA
18:00 Legend Double Dagger -3.8 -7.5 76   0 16.1 100.83     LegendNANA
19:00 Legend Double Dagger -7.9 -10.3 83 14 9 16.1 100.87   -12 LegendNANA
20:00 Legend Double Dagger -7.5 -10.1 82 17 9 16.1 100.89   -12 LegendNANA
21:00 Legend Double Dagger -7.2 -9.7 82 19 5 16.1 100.91   -10 LegendNANA
22:00 Legend Double Dagger -6.9 -9.2 84 LegendMM 4 16.1 100.92   -9 LegendNANA
23:00 Legend Double Dagger -7.8 -10.9 79 LegendMM 4 16.1 100.93   -10 LegendNANA

Notes on Data Quality.

Legend

  • E = Estimated
  • M = Missing
  • NA = Not Available
  • ‡ = Partner data that is not subject to review by the National Climate Archives
Date modified: